Dewpoint
45 44 42 41 41 42 44 44 45 46 46 44 42 43 39 40 39 45 43 42 42 33 28 35 32 31 34 31 21 20 20 21 19 21 21 15 14 20 21 23 28 28 27 29 30 30 30 31 32 33 34 34 36 38 39 38 36 36 34 30 34 48 28 28 27 27 29 28 29 31 35 35 33 35 36 33 29 28 21 20 23 23 25 24 26 29 32
44 42 41 41 41 42 44 44 45 46 46 45 43 41 37 37 42 41 41 42 42 32 22 23 26 33 34 33 21 19 18 22 20 22 18 20 18 22 22 23 25 29 28 29 29 30 28 31 32 32 34 35 37 39 41 39 37 30 32 28 36 23 23 28 21 20 24 25 25 26 30 36 33 32 33 35 32 30 29 27 26 25 26 23 25 24 32
43 41 42 42 42 43 44 45 46 46 47 47 44 39 36 36 43 43 40 42 41 33 32 32 31 36 38 39 37 34 35 29 29 28 21 19 22 25 22 21 24 28 29 30 31 31 31 31 33 35 37 35 35 34 40 44 43 47 44 47 33 28 26 25 21 16 15 15 15 18 24 30 32 34 34 35 33 31 24 18 22 19 24 25 25 28 35
42 40 42 42 44 45 45 45 46 46 47 47 44 41 38 39 33 39 39 39 41 39 41 39 37 35 36 32 34 36 34 26 22 21 19 21 25 24 24 18 28 29 30 30 30 30 31 32 32 31 32 32 33 34 36 44 46 48 48 45 37 32 32 27 24 24 23 24 24 28 32 30 31 32 35 35 35 33 27 25 19 21 27 29 33 33 33
41 42 43 43 44 45 45 46 46 47 47 47 44 42 38 38 36 35 34 38 39 38 38 40 40 34 35 29 33 31 30 27 20 19 23 24 23 28 27 26 29 30 30 30 29 29 31 31 31 31 32 32 33 32 34 34 43 45 44 44 33 33 32 34 35 34 34 32 34 35 35 34 35 35 34 35 35 34 32 21 20 29 29 25 34 35 33
41 42 43 43 44 44 45 45 46 46 47 47 46 39 34 35 37 40 38 33 31 31 31 36 37 37 37 35 34 30 27 25 18 18 24 25 25 26 24 25 26 27 29 29 27 28 28 29 28 30 29 29 31 30 30 30 37 42 36 39 35 32 30 34 35 34 35 35 35 36 36 35 36 36 36 35 35 36 34 34 34 28 20 27 35 34 32
41 43 44 44 44 44 45 45 46 46 46 46 44 38 37 41 40 41 43 34 36 34 35 38 35 36 37 34 35 30 28 25 24 23 25 24 24 26 23 24 23 26 28 29 28 28 27 24 27 28 27 29 29 28 30 30 32 36 37 35 35 34 32 33 34 34 34 34 34 35 35 35 35 35 35 35 35 35 35 35 35 35 34 36 35 33 33
43 43 43 44 44 44 44 44 45 46 46 46 44 42 41 42 41 39 41 40 38 39 39 38 38 34 38 34 32 28 27 26 25 23 25 22 24 24 23 22 22 22 23 26 26 25 30 29 26 28 27 24 29 28 29 28 29 33 34 36 34 35 33 35 33 33 33 34 34 34 34 34 33 34 35 35 35 35 35 35 35 35 34 34 33 32 31
42 43 44 44 44 44 44 45 45 46 46 44 43 41 45 45 47 47 42 34 34 38 36 36 34 28 26 23 25 29 26 25 25 24 25 27 25 24 22 21 22 20 21 23 24 27 27 26 28 30 30 26 26 28 27 30 29 30 32 33 34 35 33 33 32 31 31 33 32 32 33 33 33 33 34 34 34 33 34 33 35 34 32 33 32 30 30
43 44 44 44 44 44 45 45 46 45 46 43 40 41 45 44 49 48 42 32 38 33 36 30 26 21 26 29 28 27 26 27 24 23 22 25 26 28 25 24 22 22 22 22 25 27 24 24 26 28 30 30 31 31 30 30 30 28 29 31 29 31 33 28 29 30 30 33 32 29 26 27 28 31 33 34 35 35 35 35 36 35 34 33 31 31 34
43 44 44 44 45 45 45 45 46 44 43 41 39 40 43 42 41 42 39 32 29 33 31 25 28 27 29 28 28 28 29 27 26 25 21 26 25 27 29 24 23 21 23 24 24 27 29 29 29 29 29 28 28 29 29 30 31 31 30 28 28 31 31 27 28 29 30 32 32 30 24 18 23 35 36 37 34 34 32 32 34 35 36 33 35 34 36
43 44 44 44 45 45 45 46 46 44 41 41 42 42 44 43 42 43 36 30 28 32 27 23 25 27 28 26 26 26 25 25 25 26 24 25 26 28 26 26 26 22 22 26 28 29 28 27 27 27 27 27 27 28 28 28 29 32 31 31 30 29 27 23 26 30 30 31 27 25 19 19 33 37 36 36 36 35 34 35 35 35 35 35 35 35 35
44 44 44 44 44 45 46 46 47 46 45 44 45 41 43 44 41 41 38 30 25 29 23 21 21 23 25 24 23 25 27 25 27 28 26 25 23 23 25 23 24 21 26 24 25 25 25 25 24 26 25 24 26 26 27 28 29 30 30 31 30 26 28 20 23 22 26 25 21 20 16 31 35 35 36 37 36 34 33 33 35 35 35 35 34 35 35
43 43 43 44 45 45 46 46 47 47 47 48 45 44 43 43 42 41 34 28 26 27 26 22 22 24 24 23 21 23 21 22 22 25 23 26 24 23 23 22 22 25 27 28 28 25 23 23 20 20 21 21 24 25 26 28 29 29 30 30 31 29 27 28 26 27 28 27 27 25 31 32 33 34 34 35 31 31 29 27 31 36 36 35 34 34 34
43 43 43 44 45 46 46 47 47 47 48 48 47 45 44 44 43 42 42 33 26 26 25 21 23 26 26 24 25 21 21 22 21 20 22 27 23 24 25 23 28 29 30 25 26 25 19 21 18 16 19 16 14 19 24 25 25 30 30 30 29 29 29 26 27 22 26 27 24 26 25 23 29 34 37 38 38 37 36 32 30 35 36 35 35 34 33
43 43 44 45 45 45 46 47 47 47 48 48 47 46 45 45 44 44 41 32 29 23 22 26 26 27 24 24 23 22 18 19 21 21 22 22 20 20 21 25 30 34 30 29 27 25 21 21 16 13 13 16 13 21 20 25 24 27 29 29 29 28 29 28 27 25 23 20 22 23 22 24 31 33 35 37 38 37 34 29 27 34 34 36 35 34 34
43 43 44 45 46 46 47 47 48 48 48 48 47 46 45 46 44 42 41 35 28 21 24 25 29 28 25 23 28 25 23 18 22 20 17 19 20 19 20 25 31 32 30 28 26 22 23 21 21 20 17 22 19 18 23 22 16 20 27 28 27 26 23 23 25 19 15 19 20 21 25 26 31 34 36 37 38 37 31 21 24 33 33 34 35 34 34
43 44 45 45 46 46 47 47 47 48 48 48 48 46 45 46 45 44 41 32 26 23 25 24 29 25 22 23 24 24 31 27 22 25 21 22 21 21 21 27 25 28 31 27 25 22 18 13 15 14 18 25 23 21 15 18 21 21 26 22 24 22 20 20 19 13 19 22 22 23 26 33 35 35 37 38 39 35 24 21 28 34 33 33 35 35 35
44 44 45 45 46 46 47 47 48 48 48 49 48 46 45 46 45 44 36 29 27 24 22 22 28 29 28 31 31 31 32 27 25 23 19 24 23 25 23 29 27 23 29 25 26 20 18 21 24 22 19 22 25 19 23 24 25 28 21 18 17 22 21 19 16 20 18 19 20 20 24 31 36 37 38 40 34 26 24 31 35 33 33 33 34 34 34
44 44 45 45 46 46 47 48 48 48 49 49 48 44 44 46 46 45 32 23 24 22 23 23 27 29 30 31 29 29 29 28 27 22 21 21 26 30 27 26 27 29 27 26 21 24 21 19 22 23 21 23 26 27 28 29 32 29 25 24 20 20 21 20 17 17 16 10 17 17 16 27 35 35 36 35 30 27 32 33 34 34 33 33 34 34 34
44 44 45 45 46 46 47 48 48 49 49 49 48 45 39 44 45 45 42 29 27 26 24 24 25 26 32 33 33 32 29 24 27 24 25 28 30 28 18 19 23 25 22 21 22 21 19 21 24 22 25 24 26 27 25 28 29 32 29 29 29 31 23 20 21 23 19 10 13 16 27 31 36 35 30 33 34 35 34 34 33 34 34 34 34 34 35
44 44 45 46 46 47 47 48 48 49 49 49 46 43 35 37 42 45 44 36 28 24 24 23 20 24 27 32 36 35 33 33 34 32 32 28 32 27 26 30 29 28 28 28 26 23 26 25 25 20 22 24 26 23 28 23 20 25 28 28 24 32 25 26 25 29 17 18 24 31 35 35 36 36 34 35 35 35 35 34 34 34 34 35 34 35 36
44 44 45 45 46 47 47 48 48 49 49 49 45 39 35 39 40 45 38 24 26 31 30 26 29 29 31 26 34 37 34 37 38 36 34 31 28 29 29 28 28 32 32 28 26 29 27 27 21 25 24 23 25 26 27 23 23 30 27 32 31 33 33 33 32 30 34 34 35 35 35 35 35 35 35 35 35 35 34 34 33 34 35 35 35 35 36
44 44 45 46 46 47 47 48 48 48 48 49 45 39 38 39 41 31 28 29 27 21 24 25 25 22 21 21 20 21 27 26 32 35 37 35 29 25 29 31 32 32 30 32 32 29 27 24 26 26 24 25 25 21 22 24 28 31 31 31 34 33 33 33 31 32 29 24 34 33 34 35 35 35 36 36 36 36 35 35 35 36 36 36 36 36 36
44 44 45 46 46 47 47 48 48 48 48 49 46 44 42 39 39 33 26 17 20 25 18 21 23 21 20 20 19 21 23 29 36 39 36 36 33 30 29 33 34 31 28 29 28 29 26 25 25 23 24 26 27 23 26 28 29 34 29 31 30 28 32 30 31 31 29 29 33 34 35 35 36 36 35 35 35 36 36 35 35 36 36 37 36 36 35
44 44 45 45 46 47 47 48 48 48 47 48 46 39 39 38 40 36 32 32 28 27 21 16 21 26 23 25 24 25 25 30 29 31 34 36 34 33 32 33 30 33 32 32 31 28 25 25 23 22 25 24 28 25 26 29 31 29 29 28 29 30 33 26 30 29 32 33 33 34 34 34 35 36 36 36 36 35 35 35 35 35 34 34 35 35 33
44 44 45 45 46 47 47 47 48 46 47 48 44 37 38 37 41 37 24 25 24 20 24 18 20 22 21 25 26 26 28 29 30 29 29 30 30 32 31 30 29 30 30 29 29 28 27 25 25 26 27 26 27 28 28 28 26 23 22 28 29 29 27 30 30 27 27 28 30 32 29 28 33 34 35 35 35 35 34 34 34 34 34 33 33 33 33
44 44 45 45 46 47 47 48 48 46 48 47 44 38 36 35 38 40 37 33 24 24 20 16 19 22 26 23 26 25 26 29 27 28 28 29 30 31 30 30 29 29 28 30 28 28 27 29 27 21 22 25 26 26 26 26 26 25 26 26 27 27 28 28 25 26 26 30 33 33 31 32 33 34 35 36 35 35 34 34 34 34 34 34 34 33 32
44 45 45 46 46 47 47 47 48 46 47 45 36 34 33 36 38 40 42 37 30 27 24 25 27 25 21 25 27 25 25 27 27 27 27 27 28 30 30 30 29 29 29 29 28 26 26 23 22 24 25 26 27 23 23 22 18 21 25 28 29 30 31 30 29 29 31 33 33 31 31 31 32 34 34 34 34 35 34 35 34 35 34 33 33 32 33
44 45 45 46 47 47 47 47 47 47 47 37 35 29 29 30 33 38 42 42 33 30 27 21 21 18 29 25 27 25 27 27 26 27 27 26 27 27 27 28 29 32 29 27 27 24 23 23 21 25 28 29 26 19 17 21 20 24 26 29 30 31 31 32 32 29 30 32 31 31 32 33 33 33 33 33 34 34 34 34 33 33 31 31 32 31 30
44 45 46 46 47 47 47 47 47 47 45 33 31 26 22 22 28 36 41 43 35 29 24 28 22 21 22 25 27 24 26 32 28 26 28 29 28 28 28 28 28 32 27 27 28 23 23 22 20 23 27 32 24 18 22 21 21 24 26 28 29 30 31 32 33 33 33 32 33 33 33 33 33 33 32 32 33 33 32 33 35 37 34 33 31 31 31
45 45 46 46 47 47 48 48 48 47 38 32 32 29 27 27 28 35 44 44 37 31 28 21 18 22 17 24 28 27 29 34 30 29 28 31 26 28 27 28 27 31 31 26 23 26 24 21 22 25 25 28 29 22 23 22 22 24 26 27 28 30 32 33 33 33 33 33 32 31 31 31 31 31 31 32 32 32 32 32 32 34 37 34 32 32 32
45 46 46 46 47 47 48 48 48 47 39 39 42 43 44 45 46 45 45 39 28 24 26 24 17 17 18 21 26 27 29 30 26 27 24 29 25 27 25 29 29 28 34 30 23 21 23 20 22 26 25 26 20 19 22 17 23 26 28 29 29 30 31 32 32 33 32 31 29 28 29 30 31 30 31 32 32 32 31 32 32 32 32 32 32 32 32
45 46 46 47 47 48 47 48 48 46 43 32 25 24 30 43 44 45 40 33 28 27 25 21 16 16 17 24 21 25 28 23 21 25 20 25 28 26 20 26 27 26 25 26 23 24 21 27 23 19 23 22 21 20 19 24 25 26 26 27 29 30 31 32 32 32 31 31 30 30 31 31 31 31 33 33 32 32 33 31 32 32 32 32 31 31 31
45 46 46 47 47 48 47 46 37 40 33 35 38 36 36 44 45 48 42 30 20 18 18 19 23 17 16 17 14 21 28 28 21 24 23 20 28 21 23 25 23 26 21 27 24 17 19 21 24 25 19 20 18 18 17 24 25 26 26 27 27 29 30 31 30 32 31 31 32 32 32 32 32 29 31 31 32 32 32 31 31 31 31 30 30 30 30
45 46 47 47 48 47 39 40 38 34 30 29 29 36 42 46 45 41 38 34 26 21 14 13 20 16 18 13 13 16 25 22 23 24 22 21 22 24 25 23 22 19 20 23 18 21 20 24 25 18 14 18 17 19 25 26 26 26 27 27 28 30 30 30 30 31 30 30 30 30 30 30 32 29 28 29 31 31 31 30 30 30 30 29 30 29 27
45 46 47 46 39 37 30 29 35 35 32 34 38 44 45 44 37 40 33 35 34 34 21 16 19 20 20 16 16 23 23 14 19 19 20 19 16 17 20 20 18 23 20 20 18 18 20 27 21 14 13 15 19 23 27 27 26 26 26 27 29 29 30 29 30 28 27 27 28 28 29 29 27 26 27 27 29 30 30 30 30 30 30 30 30 28 27
45 45 37 36 31 27 26 27 29 35 44 45 45 33 30 31 21 24 27 24 22 35 22 23 17 22 23 22 17 21 22 15 22 16 16 18 18 15 20 20 16 25 14 14 16 24 19 19 15 15 16 21 23 25 27 28 27 27 27 27 27 27 28 28 28 27 25 24 24 23 24 25 25 24 26 26 27 29 31 32 30 30 30 30 29 27 26
43 37 35 31 30 27 26 28 38 44 41 39 35 25 22 23 20 17 16 20 21 19 19 26 19 23 24 23 23 28 23 20 14 19 16 17 18 11 17 17 14 20 12 14 15 26 16 13 10 12 16 21 24 25 26 28 28 28 28 28 28 27 28 27 27 27 26 25 25 24 25 25 24 24 25 25 25 26 27 28 28 28 29 28 26 27 27
37 35 32 26 25 27 36 39 42 38 36 25 24 21 18 21 21 16 19 16 17 18 19 17 22 24 24 23 21 20 24 18 13 12 13 15 24 17 13 16 15 17 9 8 13 22 16 11 11 11 16 20 24 24 26 28 28 27 27 27 27 27 27 26 26 26 26 25 25 24 24 24 24 25 25 25 25 25 25 26 26 26 27 27 27 28 27
35 32 29 27 32 35 38 40 35 28 23 19 18 17 16 15 19 17 18 16 16 17 21 21 23 22 23 25 25 20 22 29 23 22 19 14 18 24 14 11 14 14 10 11 15 17 12 11 10 12 20 22 24 25 26 27 28 28 27 28 27 27 26 25 25 25 24 26 26 25 25 26 26 25 25 25 25 25 26 26 27 28 27 27 28 28 27
37 34 34 38 40 40 38 30 23 18 17 19 16 14 16 16 17 16 17 16 15 16 22 23 18 21 21 24 22 23 20 23 22 20 16 13 17 17 11 12 14 10 8 17 17 12 12 10 12 12 18 22 24 24 27 27 27 27 27 27 28 27 26 25 25 26 26 25 26 26 26 27 25 25 26 25 25 26 27 27 28 27 28 28 27 27 28
42 42 41 38 33 22 22 20 21 17 13 13 11 11 13 12 13 12 12 15 18 20 19 25 23 26 23 25 20 23 21 25 15 15 18 12 17 17 12 10 8 7 11 17 13 9 9 9 9 18 22 22 24 25 26 27 27 27 26 27 27 27 26 25 25 25 26 27 26 26 27 26 25 26 27 26 26 26 26 27 27 27 28 27 28 28 28
40 40 34 27 19 19 20 14 18 14 12 12 11 10 10 10 12 11 12 13 19 20 23 23 22 23 19 21 22 16 17 18 25 15 14 15 13 8 9 7 8 12 17 11 9 8 9 8 17 20 21 23 26 25 26 26 26 25 25 26 26 26 26 25 25 25 25 26 26 26 26 25 26 26 27 27 27 26 27 27 26 27 27 27 27 28 28
31 23 18 17 15 17 15 11 15 12 10 10 16 11 12 11 12 12 16 21 22 22 24 25 24 23 19 21 20 18 21 15 20 16 10 13 9 10 8 7 12 11 11 9 7 8 11 12 21 21 22 23 25 26 26 25 25 25 25 25 25 25 25 25 24 25 25 25 25 26 25 25 26 26 27 27 27 28 27 27 28 28 28 28 28 28 28
26 19 15 14 13 14 13 9 11 10 13 16 13 18 17 18 18 18 19 25 25 24 24 24 24 23 18 19 20 15 18 18 14 11 15 13 8 7 12 15 13 8 6 4 7 7 11 18 20 21 22 23 25 26 26 25 25 25 25 24 25 25 24 24 24 24 25 25 26 25 25 25 25 26 26 27 27 28 27 27 29 29 29 28 28 29 28
25 21 17 14 10 12 16 11 11 15 16 19 20 20 20 21 20 20 19 25 25 25 25 24 23 22 19 14 14 14 16 15 10 11 14 8 7 11 17 10 7 6 5 4 3 2 7 17 21 22 23 24 25 26 25 25 25 25 24 24 24 24 24 24 24 24 25 25 25 25 25 25 25 26 27 27 27 27 27 28 29 29 30 29 29 29 28
20 20 15 11 10 13 13 15 21 20 21 19 19 21 22 22 16 16 21 24 28 25 23 22 19 18 20 19 23 13 13 17 11 12 14 11 13 8 5 5 5 5 4 5 8 14 19 21 21 23 24 25 26 25 25 25 25 24 24 24 23 23 24 24 24 25 25 25 25 25 26 26 27 27 27 27 27 27 28 29 30 29 29 29 29 28 28
29 15 13 11 14 14 13 20 16 14 17 19 20 20 20 19 17 20 23 25 25 24 24 23 19 21 15 18 15 13 10 14 8 8 13 10 7 5 4 3 3 4 9 10 14 19 20 20 22 24 25 26 25 25 25 25 24 24 24 24 24 24 25 25 25 25 26 26 26 26 26 27 27 27 26 27 27 28 29 29 30 29 29 29 29 28 28
28 22 20 18 15 16 20 19 12 14 18 20 20 18 20 19 19 20 24 25 24 23 23 24 25 23 16 16 10 12 12 14 11 13 9 6 6 8 4 4 3 6 9 17 17 20 22 22 24 25 26 26 25 25 25 25 25 25 25 25 26 26 26 25 26 26 26 26 26 26 26 27 27 28 28 27 27 27 28 28 29 29 30 29 29 28 29
24 21 21 24 20 17 14 7 8 8 16 18 18 19 21 18 19 19 25 26 24 22 23 17 16 17 13 11 9 7 9 14 12 9 10 8 9 7 5 5 8 14 17 19 18 20 23 24 24 25 26 26 26 25 25 25 25 25 26 26 26 26 26 26 26 26 26 26 26 26 27 27 27 28 28 28 28 28 28 27 27 28 29 29 30 30 29
17 18 19 21 23 21 18 19 18 16 17 18 18 20 23 22 24 25 27 23 22 21 17 17 16 12 10 8 11 12 14 13 12 11 8 10 10 7 5 8 13 18 18 19 20 23 25 25 25 26 25 26 26 25 25 26 26 26 26 27 27 26 26 27 27 26 26 26 26 26 27 27 27 27 28 28 28 27 27 27 27 27 28 29 29 30 30